#timestamp,LO_Frequency,Hit,StdDev 
1663592415.3,286047002.1,N
1663592435.1,286047002.7,N
1663592455.9,286047002.0,N
1663592475.7,286047000.4,N
1663592495.5,286047002.3,N
1663592515.4,286047000.0,N
1663592535.2,286047000.2,N
1663592555.0,286047002.6,N
1663592555.9,286047002.6,N
1663592575.8,286046999.8,N
1663592595.6,286047002.6,N
1663592615.5,286047001.7,N
1663592635.3,286047004.3,Y
1663592655.1,286047002.8,P
1663592675.9,286047002.5,P
1663592695.7,286047002.1,P
1663592715.6,286047001.9,Y
1663592735.4,286047002.8,P
1663592755.2,286047001.2,P
1663592775.1,286046998.5,N
1663592776.0,286046998.5,N
1663592795.8,286047000.6,N
1663592815.7,286046998.1,N
1663592835.5,286046998.8,N
1663592855.3,286046999.0,N
1663592875.2,286046998.7,N
1663592895.9,286046999.3,N
1663592915.7,286046998.7,N
1663592935.6,286046999.0,N
1663592955.4,286046998.8,N
1663592975.3,286046998.7,N
1663592995.1,286046998.5,N
1663593015.8,286046998.5,N
1663593035.7,286046999.0,N
1663593055.5,286046998.8,N
1663593075.4,286046998.8,N
1663593095.2,286046998.6,N
1663593115.0,286046998.8,N
1663593115.9,286046998.8,N
1663593135.8,286047000.8,N
1663593155.6,286047000.8,N
1663593175.5,286047001.2,N
1663593195.3,286047001.2,N
1663593215.1,286047001.1,N
1663593235.9,286047000.4,N
1663593255.7,286047001.2,N
1663593275.5,286046998.9,N
1663593295.4,286046999.3,N
1663593315.2,286046998.9,N
1663593335.1,286046998.7,N
1663593336.0,286046998.7,N
1663593355.8,286047001.1,N
1663593375.6,286047000.9,N
1663593395.5,286047000.7,N
1663593415.3,286047000.0,N
1663593435.1,286047000.9,N
1663593455.9,286046998.2,N
1663593475.7,286046999.4,N
1663593495.6,286046999.3,N
1663593515.4,286046998.8,N
1663593535.2,286046999.9,N
1663593555.1,286046999.9,N
1663593556.0,286046999.9,N
1663593575.8,286046998.2,N
1663593595.7,286046998.2,N
1663593615.5,286046998.1,N
1663593635.3,286047001.2,N
1663593655.2,286047000.4,N
1663593675.0,286047000.1,N
1663593675.9,286047000.1,N
1663593695.7,286046998.2,N
1663593715.6,286046998.8,N
1663593735.4,286046999.3,N
1663593755.3,286046998.7,N
1663593775.1,286047000.3,N
1663593776.0,286047000.3,N
1663593795.8,286047002.4,N
1663593815.7,286047001.5,N
1663593835.5,286047002.2,N
1663593855.3,286047002.1,N
1663593875.2,286047002.6,N
1663593895.0,286047002.3,N
1663593895.9,286047002.3,N
1663593915.8,286047002.6,N
1663593935.6,286047002.2,N
1663593955.4,286047002.8,N
1663593975.3,286047002.5,N
1663593995.1,286047002.7,N
1663594015.8,286047002.7,N
1663594035.7,286047002.8,N
1663594055.5,286047001.6,N
1663594075.4,286047001.4,N
1663594095.2,286047002.1,N
1663594115.0,286047000.3,N
1663594115.9,286047000.3,N
1663594135.8,286046998.3,N
1663594155.6,286046998.9,N
1663594175.5,286047000.9,N
1663594195.3,286046999.3,N
1663594215.1,286046999.3,N
1663594235.9,286046999.6,N
1663594255.7,286046997.4,N
1663594275.5,286046997.8,N
1663594295.4,286046997.6,N
1663594315.2,286046996.9,N
1663594335.1,286046997.2,N
1663594336.0,286046997.2,N
1663594355.8,286046998.8,N
1663594375.6,286046998.7,N
1663594395.5,286047000.7,N
1663594415.3,286046999.9,N
1663594435.2,286047002.7,N
1663594455.9,286047001.9,N
1663594475.7,286047011.9,Y
1663594495.6,286047001.6,P
1663594515.4,286047004.2,P
1663594535.2,286047000.1,N
1663594555.1,286047002.1,N
1663594556.0,286047002.1,N
1663594575.8,286047002.8,N
1663594595.7,286047001.9,N
1663594615.5,286047004.4,Y
1663594635.3,286047000.7,P
1663594655.2,286047000.3,N
1663594675.0,286047000.5,N
1663594675.9,286047000.5,N
1663594695.8,286046998.8,N
1663594715.6,286046996.8,Y
1663594735.4,286046997.2,P
1663594755.3,286046996.5,N
1663594775.1,286046996.5,N
1663594795.9,286046997.3,N
1663594815.7,286046996.8,N
1663594835.5,286046999.2,N
1663594855.4,286046999.2,N
1663594875.2,286046997.3,N
1663594895.0,286046999.1,N
1663594895.9,286046999.1,N
1663594915.8,286046998.5,N
1663594935.6,286046998.8,N
1663594955.5,286046999.0,N
1663594975.3,286046999.4,N
1663594995.1,286046998.9,N
1663595015.9,286046998.8,N
1663595035.7,286047000.9,N
1663595055.5,286047002.8,N
1663595075.4,286047000.7,N
1663595095.2,286046999.8,N
1663595115.1,286047000.2,N
1663595116.0,286047000.2,N
1663595135.8,286047000.6,N
1663595155.6,286046998.8,N
1663595175.5,286046998.9,N
1663595195.3,286047001.1,N
1663595215.1,286046998.9,N
1663595235.9,286046999.1,N
1663595255.7,286046998.9,N
1663595275.6,286046999.4,N
1663595295.4,286046998.3,N
1663595315.2,286046998.3,N
1663595335.1,286046999.2,N
1663595336.0,286046999.2,N
1663595355.8,286046997.6,N
1663595375.7,286046997.4,N
1663595395.5,286046997.1,N
1663595415.3,286046999.6,N
1663595435.2,286046999.3,N
1663595455.9,286047000.6,N
1663595475.7,286046999.9,N
1663595495.6,286046999.9,N
1663595515.4,286046998.3,N
1663595535.3,286046999.1,N
1663595555.1,286046998.7,N
1663595556.0,286046998.7,N
1663595575.8,286047000.3,N
1663595595.7,286046998.1,N
1663595615.5,286047000.9,N
1663595635.3,286046999.2,N
1663595655.2,286046998.3,N
1663595675.0,286046998.2,N
1663595675.9,286046998.2,N
1663595695.8,286046998.2,N
1663595715.6,286046998.4,N
1663595735.4,286046999.6,N
1663595755.3,286046998.0,N
1663595775.1,286046995.0,Y
1663595795.8,286046997.4,P
1663595815.7,286046997.4,P
1663595835.5,286046997.3,P
1663595855.4,286046997.7,Y
1663595875.2,286046998.2,P
1663595895.0,286046999.9,N
1663595895.9,286046999.9,N
1663595915.8,286046999.9,N
1663595935.6,286047000.9,N
1663595955.5,286046999.8,N
1663595975.3,286047001.4,N
1663595995.1,286047001.3,N
